Powrót do katalogu

QIANFAN-114

AktywnyŁącznośćPO
NORAD 68641·PAYLOAD·🇨🇳 China

Wystrzelony Apr 7, 2026 z Wenchang Space Launch Site

Loading…

Następne Przeloty (najbliższe 24 godziny)

TLE

ŚwieżeSource: Space-Track

Epoka: Sep 14, 2026, 14:56 UTC

1 68641U 26075F   26257.62257341  .00000072  00000-0  92250-4 0  9998
2 68641  88.9872 311.8902 0002254  97.9189 262.2218 13.51027505 21879

Śledź QIANFAN-114 w czasie rzeczywistym z AllMySat

Download on the App Store